Location: Newark
(41.7772°N, 74.7403°W)
Time: 12:05:57
(UTC+00:00)

Transit 4A - Pass Details

Date: 26 May 2020
Orbit: 866 x 978 km, 66.8° (Epoch: 06 July)

Event Time Altitude Azimuth Distance (km) Brightness Sun altitude
Exits shadow 08:19:13 15° 239° (WSW) 2,200 9.2 -11.4°
Maximum altitude 08:23:50 45° 307° (NW) 1,185 8.4 -10.8°
Drops below altitude 10° 08:29:29 10° 20° (NNE) 2,558 11.2 -10.0°
Sets 08:32:08 0° 26° (NNE) 3,517 12.3 -9.6°
